Wind_Speed
58 59 60 60 61 61 61 62 62 63 63 63 64 64 65 65 65 65 64 63 62 61 60 58 58 57 56 56 56 56 57 57 57 57 57 57 57 56 56 56 56 57 57 57 56 55 54 54 52 49 47 45 44 44 41 37 38 40 40 42 44 47 46 45 45 45 45 45 43 41 41 39 39 39 39 41 41 39 40 43 43 43 44 43 38
60 60 61 62 63 64 64 64 64 64 65 65 65 65 65 66 66 65 65 64 64 63 61 60 60 59 57 56 56 56 57 57 58 57 58 58 57 56 56 56 57 57 57 58 57 56 55 53 52 49 46 45 44 43 40 38 39 39 38 39 43 45 45 44 44 44 43 42 41 39 36 34 34 35 36 37 37 37 39 41 41 41 42 40 37
61 62 63 64 65 65 65 65 65 65 65 65 65 65 66 66 66 66 66 67 66 65 64 63 61 58 56 56 56 56 57 57 58 58 58 58 58 57 56 56 56 57 57 58 57 57 55 53 52 49 46 45 43 41 38 39 41 39 39 40 42 44 45 44 44 45 44 42 39 36 35 34 32 32 33 34 35 38 42 43 42 42 42 41 42
61 61 62 63 64 64 65 65 64 64 64 65 65 66 66 67 67 68 68 68 68 67 66 64 60 56 55 55 56 56 57 57 58 58 58 58 58 58 57 56 56 57 57 58 58 57 56 54 52 49 46 44 42 39 37 42 44 42 43 43 43 43 43 43 45 47 47 44 40 39 39 39 35 32 32 31 31 36 42 43 43 43 43 44 45
61 61 62 63 64 65 65 65 66 66 66 66 66 67 68 69 70 70 69 68 68 67 65 63 60 58 57 57 57 57 57 58 58 58 58 58 58 58 58 57 57 57 57 58 58 57 56 54 52 50 46 44 42 38 37 46 48 46 47 46 45 45 45 45 47 48 50 49 46 44 42 42 39 36 35 32 29 32 36 39 41 42 43 44 44
62 63 64 65 65 66 67 68 68 69 69 69 69 70 70 71 70 70 69 68 66 65 64 63 62 61 60 59 58 58 58 58 59 59 59 58 58 58 58 58 57 57 57 58 57 57 55 54 53 50 47 44 42 38 38 49 51 50 51 50 48 49 48 47 48 48 49 48 44 41 39 41 42 39 38 36 33 32 33 35 37 39 42 44 43
64 65 66 67 68 69 70 70 71 72 72 72 72 71 71 70 69 68 67 66 65 65 64 64 64 63 62 61 59 58 58 59 60 60 60 59 59 59 58 58 58 58 58 58 58 57 55 54 53 51 48 45 43 39 39 50 54 52 55 54 53 52 51 50 49 47 47 46 41 39 40 42 43 41 40 39 37 35 34 34 36 38 41 44 43
65 66 67 68 70 71 71 71 72 72 73 72 71 70 69 68 67 66 66 66 66 65 65 65 65 64 63 61 60 60 60 60 60 61 61 61 60 59 59 59 59 59 59 58 58 57 56 54 53 51 49 46 44 41 40 50 56 54 56 58 56 56 54 53 52 49 47 46 45 45 46 46 45 43 42 41 39 37 36 36 38 39 41 44 44
65 66 67 68 69 70 70 70 70 70 70 70 69 68 67 66 65 65 66 66 66 66 66 66 65 64 63 63 62 62 61 60 60 61 62 62 62 61 60 60 60 60 60 59 58 57 56 55 53 52 50 48 45 43 42 50 59 58 57 59 58 58 57 56 54 51 49 49 49 49 49 49 48 46 45 45 44 41 38 38 38 37 40 43 44
65 66 67 67 68 68 68 68 68 67 67 66 65 65 64 64 64 64 65 65 66 66 67 67 66 65 65 64 63 63 62 61 61 61 62 63 63 63 62 61 60 60 61 60 60 59 57 56 54 53 51 49 47 45 43 49 60 63 60 60 60 59 59 56 53 51 52 53 52 51 51 51 51 49 49 49 47 44 41 41 39 37 38 41 42
65 65 66 66 67 67 68 67 66 65 63 62 62 62 62 63 63 63 64 65 66 67 68 68 68 67 66 65 64 63 62 62 62 62 62 63 63 64 64 64 62 61 61 61 61 60 59 58 56 54 53 51 49 47 46 48 58 65 65 63 62 60 60 58 54 52 54 54 53 53 53 53 53 53 53 52 49 46 45 44 41 39 39 39 41
64 65 66 67 68 68 68 66 64 62 60 60 60 60 61 62 63 64 65 66 67 67 68 68 68 67 66 65 64 64 63 63 63 63 63 64 64 64 65 65 65 64 63 62 62 62 61 60 58 57 55 53 51 49 48 49 56 65 68 66 64 62 61 60 57 56 56 56 55 54 53 54 55 55 55 54 51 49 48 45 44 43 40 39 39
66 67 68 69 69 68 65 62 60 59 59 59 60 61 62 64 65 66 66 66 66 67 67 67 68 67 67 66 66 65 65 65 65 65 65 65 66 66 66 67 67 67 66 65 63 63 63 62 61 59 58 56 53 52 51 51 55 64 70 69 67 66 64 62 61 60 60 59 57 55 54 56 55 52 52 53 52 51 48 47 47 46 43 40 40
68 69 70 70 69 66 62 60 59 59 60 61 62 63 64 65 66 66 66 66 67 67 68 68 68 68 67 67 67 67 67 67 68 68 68 68 68 68 69 69 69 69 68 68 67 65 64 64 63 61 60 58 56 54 53 53 55 61 69 72 71 70 68 65 64 63 62 61 59 57 56 56 54 51 51 51 51 50 49 48 49 47 44 43 44
70 70 70 68 65 63 61 60 60 60 61 62 63 64 64 65 66 66 67 68 68 68 69 69 69 69 69 69 69 69 70 70 71 71 71 71 71 71 71 71 71 71 70 70 70 68 67 65 65 64 62 61 59 57 56 56 56 59 67 73 73 72 71 69 67 65 63 62 60 59 59 58 57 55 53 51 51 52 51 50 49 48 46 46 48
67 65 64 62 61 60 60 60 60 61 62 63 63 64 64 66 67 68 69 69 69 69 70 70 71 71 72 72 73 73 73 74 74 75 75 75 75 74 74 74 74 74 73 73 72 71 70 68 67 66 65 63 61 59 58 58 58 59 64 71 74 73 72 71 70 68 65 62 61 60 59 59 58 57 55 53 53 54 53 51 50 50 50 52 54
60 60 59 59 59 59 59 60 61 61 62 62 63 64 65 67 68 69 70 70 70 71 71 72 73 74 75 75 76 77 77 78 78 78 79 79 79 79 78 77 77 76 76 75 74 73 73 71 70 68 67 66 64 63 61 60 60 60 62 68 74 75 74 73 72 70 69 66 63 61 59 58 57 57 56 56 57 58 58 58 58 58 58 59 59
58 59 59 59 59 59 60 61 61 62 62 63 64 66 67 68 70 70 71 71 72 73 73 74 75 76 77 78 79 79 80 80 81 81 81 81 81 81 80 80 79 78 77 77 76 75 74 73 72 71 69 68 67 66 64 63 63 62 62 65 71 75 76 75 73 72 71 69 67 66 64 61 59 59 59 59 59 59 60 62 64 63 63 63 62
59 59 59 60 60 60 60 61 61 62 64 65 67 68 69 70 71 72 73 73 74 75 76 77 78 79 79 80 81 81 81 81 81 81 81 81 81 81 81 81 80 79 78 78 77 76 75 74 73 73 72 71 69 68 67 66 65 65 64 65 69 75 77 76 75 74 73 71 71 69 68 66 64 63 62 62 60 58 57 58 59 59 61 63 63
60 59 59 59 59 59 60 61 63 64 66 67 69 69 70 71 72 73 74 75 76 77 78 79 80 80 80 80 81 81 80 80 79 79 79 79 79 79 80 80 79 78 78 78 77 76 75 74 74 74 73 73 72 71 70 69 68 68 67 66 68 73 78 79 78 77 75 74 73 72 71 69 67 65 64 63 62 61 60 58 56 56 57 59 61
58 58 58 58 59 61 62 64 65 66 67 68 69 70 71 72 74 75 76 77 78 79 80 80 80 81 80 80 79 78 77 77 76 75 75 75 75 75 75 75 76 76 75 75 76 75 75 75 74 74 74 74 74 73 72 72 71 70 69 69 68 71 77 80 81 80 79 77 75 73 72 71 68 67 67 66 65 64 64 63 62 61 60 60 61
57 58 59 60 61 63 64 65 66 67 68 69 70 71 72 73 74 76 77 78 79 80 80 80 80 79 78 77 76 74 73 72 71 70 70 70 70 71 70 70 71 72 71 71 71 72 73 73 73 73 73 74 75 75 74 74 73 72 71 71 71 71 74 79 82 82 82 81 78 76 74 72 71 70 71 71 70 69 68 68 69 69 68 67 67
58 60 61 62 63 64 65 65 66 67 68 69 70 71 73 74 75 76 77 78 79 79 79 78 77 76 74 73 71 70 69 67 66 66 65 66 66 66 66 66 65 66 67 66 66 67 68 69 71 72 72 73 75 76 76 76 75 74 73 73 73 73 73 77 81 83 83 83 82 80 78 76 74 73 74 74 75 75 74 73 73 72 72 72 72
60 61 62 62 63 63 64 65 66 67 68 69 71 72 73 74 76 77 77 77 77 76 75 74 73 71 70 68 67 66 65 64 63 62 62 62 62 63 62 62 61 61 61 61 61 62 64 64 66 69 70 71 73 75 77 77 77 76 75 75 75 75 74 75 79 82 83 83 83 83 82 80 79 77 76 76 77 78 79 79 78 76 74 74 75
60 60 61 61 62 62 64 65 66 67 69 70 72 73 74 75 76 76 75 74 73 72 71 70 68 67 65 65 64 63 63 62 61 60 59 59 59 59 58 58 58 57 57 56 55 57 59 60 61 64 67 69 71 74 76 78 78 78 78 77 77 77 76 75 76 80 83 84 83 84 84 83 82 80 79 78 78 78 78 78 78 77 74 74 76
59 59 60 61 62 63 65 66 68 69 70 71 72 73 74 74 74 73 72 71 69 68 67 65 64 63 63 62 61 61 60 60 59 58 57 57 56 55 54 54 54 54 54 53 51 51 54 56 57 59 62 65 68 71 74 77 79 79 79 79 79 79 78 77 76 78 82 85 85 85 85 84 83 82 81 80 80 80 79 78 76 75 75 75 76
58 59 60 61 63 64 66 68 69 70 71 72 73 73 73 72 71 69 68 66 64 63 62 62 62 62 61 60 59 58 58 57 56 55 55 55 54 53 51 50 50 50 51 51 48 47 49 52 53 55 58 61 64 68 71 75 78 80 80 81 81 81 80 79 77 78 81 85 86 86 85 86 85 84 83 82 81 80 80 78 77 76 76 76 77
59 60 62 63 65 66 68 69 71 71 72 72 72 71 70 68 67 65 63 60 59 59 59 59 59 59 58 58 57 56 55 54 53 52 52 52 52 51 49 46 45 45 47 49 48 45 45 48 49 51 54 57 60 64 68 72 76 80 81 82 82 83 82 82 80 79 80 84 86 87 87 87 87 86 84 83 82 82 81 80 78 77 77 77 78
61 62 64 66 67 69 70 71 71 71 71 70 69 68 66 64 62 59 57 56 55 56 56 56 56 55 54 53 53 52 52 51 50 49 48 48 48 48 48 46 44 42 42 44 46 44 43 45 46 47 50 54 56 60 64 69 73 78 81 82 83 84 85 84 83 82 81 83 86 88 88 88 88 87 86 86 85 84 83 82 81 80 79 78 78
63 64 66 68 70 71 71 71 71 70 68 67 65 63 61 58 56 54 53 53 53 52 53 53 53 53 51 50 49 49 48 47 46 45 45 45 44 44 44 43 42 40 39 40 42 42 42 42 43 44 46 50 54 56 60 65 70 75 80 82 84 85 86 86 85 84 83 83 85 87 89 89 89 89 89 88 88 87 86 85 84 83 82 81 80
65 66 68 69 70 71 70 69 68 66 65 63 60 57 54 52 51 51 51 50 49 49 49 50 50 51 50 48 48 47 46 44 44 44 43 43 43 42 42 40 39 37 36 36 38 40 40 40 41 42 43 47 51 54 57 61 67 72 77 81 84 86 87 88 87 86 85 84 85 87 89 89 89 90 90 90 89 89 89 88 88 87 86 85 83
67 68 69 69 69 68 67 65 63 62 59 56 53 51 49 49 49 49 48 47 46 46 46 47 48 48 48 47 47 47 47 46 45 45 44 42 41 41 41 39 37 35 34 33 35 37 37 38 38 39 41 44 48 51 54 58 63 69 74 79 83 86 88 89 89 88 87 86 86 87 88 90 90 91 91 92 91 91 90 90 89 89 89 88 87
68 68 68 67 66 64 62 60 57 54 51 49 47 47 47 47 46 46 45 44 44 44 45 46 47 47 47 47 47 47 47 46 45 45 44 42 41 40 39 38 36 34 32 31 31 33 35 35 36 37 38 42 46 49 52 55 60 65 71 76 81 85 87 89 90 90 89 88 88 88 88 90 91 92 92 92 92 92 91 90 89 89 89 89 89
67 66 65 63 62 59 56 53 50 47 45 45 44 44 44 45 44 44 43 42 42 42 44 45 46 48 49 49 48 48 47 46 44 44 44 42 40 39 38 37 36 33 31 29 29 30 32 33 33 35 36 39 43 47 50 53 57 62 67 72 77 82 86 89 91 91 91 91 90 90 89 90 91 92 93 94 94 95 95 94 92 91 89 89 89
64 62 60 58 55 52 49 46 44 43 42 42 42 42 42 42 42 42 42 42 42 42 43 45 47 49 50 50 49 47 47 45 43 43 43 43 41 39 38 36 35 33 31 28 27 27 29 31 31 32 34 37 41 45 48 51 54 58 63 68 74 79 84 88 91 92 92 92 92 92 91 91 91 92 93 94 95 96 97 97 96 95 93 92 91
59 57 54 50 47 44 42 41 40 40 40 40 40 40 40 39 40 40 41 42 42 43 44 45 47 48 49 49 48 47 46 45 43 42 42 42 41 39 37 35 34 32 30 28 26 25 27 29 30 30 32 35 38 42 46 49 52 55 60 65 70 75 81 86 90 92 93 93 93 93 93 93 92 92 94 94 95 95 96 97 97 97 97 97 96
52 49 46 43 41 40 39 38 38 38 38 38 38 38 38 37 38 39 41 43 44 44 45 45 46 47 48 48 48 47 47 46 44 42 41 40 39 38 36 34 33 32 30 28 26 25 24 26 27 29 30 33 36 40 43 47 50 53 57 61 66 72 77 82 86 90 93 94 94 95 95 95 95 94 95 95 95 95 95 96 97 97 98 99 100
44 43 41 40 38 37 37 36 36 36 36 37 37 36 36 36 37 39 41 43 44 45 46 46 47 47 47 48 48 48 47 47 45 43 41 40 39 38 37 35 32 31 30 28 26 25 24 24 25 27 28 30 33 37 41 44 47 51 54 58 62 67 72 77 82 87 91 94 95 96 96 97 98 97 96 95 95 95 96 97 97 98 98 100 100
40 39 39 38 36 35 34 34 34 34 35 35 35 34 35 35 36 38 40 42 44 45 46 47 47 47 47 47 48 48 47 46 46 45 43 41 39 37 36 35 33 30 29 28 26 25 24 23 23 25 27 29 31 34 38 41 44 47 51 55 59 63 68 73 77 82 87 92 95 97 98 98 99 100 99 97 96 95 96 97 98 99 100 101 101
38 38 37 36 35 33 32 32 33 33 34 34 33 33 34 35 36 38 40 42 43 44 46 47 47 48 47 47 48 48 47 46 45 45 43 41 39 37 36 35 33 31 29 27 26 25 24 23 22 23 24 27 29 32 35 39 42 45 48 52 55 59 63 68 73 78 82 87 92 96 98 100 100 101 101 100 99 98 97 97 98 99 101 102 103
36 36 35 34 33 32 31 31 31 32 32 32 32 33 34 35 36 37 40 41 43 44 45 46 47 48 48 48 48 48 47 45 45 44 43 41 40 38 36 34 33 32 29 27 26 25 23 23 22 22 23 24 27 30 32 36 39 42 45 48 52 56 59 63 68 73 77 82 86 91 95 99 101 101 102 102 102 101 100 99 99 100 101 103 104
35 34 33 32 31 30 29 30 31 31 31 31 32 33 34 36 37 38 39 41 43 44 45 46 47 48 48 48 48 48 47 46 44 44 43 41 40 38 37 35 33 32 31 28 26 24 23 22 22 22 22 23 25 27 30 33 36 39 43 46 49 52 56 59 63 68 72 76 81 85 90 95 98 101 102 103 104 104 104 103 102 102 102 103 104
33 32 31 29 28 28 29 30 30 30 29 29 31 32 34 36 37 38 39 41 43 44 45 46 47 48 48 48 48 47 47 46 44 43 43 42 40 39 37 35 34 33 32 30 28 25 23 22 21 21 22 22 23 25 28 31 34 37 40 43 46 49 53 56 60 63 67 71 75 80 84 89 93 97 100 103 104 105 106 106 106 105 105 105 106
31 30 28 27 27 27 28 29 29 28 28 28 29 31 33 36 38 39 40 41 42 44 45 46 47 48 49 49 48 47 47 46 44 43 42 41 40 39 37 36 35 34 32 31 28 26 23 21 20 20 21 21 22 24 25 28 31 34 37 40 43 46 49 53 56 59 63 66 70 74 78 83 87 91 95 99 101 103 105 106 107 107 107 107 108
28 27 26 25 26 26 27 28 28 27 27 28 29 30 32 35 37 39 40 41 43 44 45 47 48 49 49 49 49 48 47 46 45 43 42 41 40 39 37 36 36 35 33 31 29 27 24 22 20 19 19 20 21 23 24 25 28 31 34 37 40 43 46 50 53 56 59 62 65 69 73 77 81 85 89 92 96 99 101 103 105 107 108 109 109
26 25 25 25 25 26 27 27 26 26 27 27 29 30 31 34 36 38 40 41 43 44 45 46 48 48 49 49 49 48 47 46 46 44 42 41 41 40 38 37 36 35 34 32 30 28 26 24 22 20 19 18 19 21 22 24 26 28 31 34 37 40 43 46 50 53 56 59 62 65 68 71 75 79 83 87 90 93 96 99 101 103 105 106 108
24 24 25 25 26 26 26 25 25 26 26 27 29 30 31 32 34 36 39 41 42 44 45 46 47 48 49 49 49 48 48 47 46 45 43 42 41 41 40 38 36 35 34 33 31 29 26 25 23 22 20 19 18 19 20 22 24 26 28 30 33 36 40 43 46 50 53 56 59 62 65 67 70 73 77 80 84 87 91 94 97 99 101 102 104
23 24 25 26 26 26 25 25 25 25 26 27 28 29 30 31 33 35 37 39 42 43 45 46 47 48 49 49 50 49 49 48 47 46 44 43 42 41 41 39 37 35 34 33 32 30 28 26 24 23 22 21 20 19 19 20 22 24 26 28 30 33 36 39 42 46 49 52 55 58 61 64 67 69 72 75 78 81 85 88 91 94 97 99 101
23 24 25 26 26 26 25 25 25 26 27 27 29 30 31 31 32 34 35 37 39 42 44 46 47 49 49 50 50 50 50 49 48 47 46 44 43 42 41 40 39 37 35 33 31 30 29 28 27 25 24 22 22 21 20 19 20 21 23 25 27 30 32 35 38 41 45 48 51 54 57 61 64 66 69 71 73 76 79 82 85 88 91 94 97
23 25 25 26 26 25 25 25 26 27 28 29 30 31 32 33 34 35 36 37 38 41 43 46 48 49 50 50 51 51 50 50 49 48 47 45 44 42 41 40 39 38 37 35 32 31 30 29 28 28 26 24 23 22 21 21 20 21 21 23 25 27 29 31 34 37 40 43 47 50 53 57 60 63 65 68 70 72 75 77 79 82 85 88 90
24 25 25 25 25 25 26 26 27 28 30 31 31 32 33 34 36 36 37 38 39 41 43 45 47 49 50 51 52 52 52 51 50 49 47 46 44 43 42 41 39 39 38 36 35 33 31 30 29 28 28 26 25 23 22 21 21 21 21 22 23 24 26 28 30 33 36 39 42 45 48 52 55 58 61 64 67 69 72 74 75 78 80 82 84
Wind_Direction
276 278 278 279 280 281 281 282 282 283 283 284 285 286 287 287 287 288 288 289 291 291 290 290 289 288 286 284 282 280 279 279 279 279 279 278 278 277 277 276 274 273 273 274 274 275 276 278 280 281 284 286 288 289 285 268 249 242 242 241 239 239 241 243 244 245 248 250 254 257 258 257 258 258 258 258 260 260 256 253 254 253 255 259 265
276 277 278 279 280 280 281 281 281 282 283 284 284 285 285 286 287 288 289 291 291 291 291 292 291 289 286 285 283 282 280 279 279 279 279 279 278 278 277 276 275 274 273 273 274 275 275 277 278 280 282 284 286 288 281 260 244 239 237 236 235 237 239 239 240 242 244 246 249 251 252 252 254 256 256 257 258 260 259 258 257 256 257 260 262
277 278 279 279 279 279 279 280 280 281 282 282 283 284 284 285 287 289 290 291 291 291 291 292 291 288 286 284 284 283 281 279 279 279 279 278 278 278 277 276 275 274 274 273 273 274 274 275 277 278 280 282 284 286 274 250 239 234 231 231 232 236 239 238 239 242 241 241 244 246 247 249 253 255 255 257 259 260 260 261 260 260 260 259 259
276 277 277 277 277 278 278 279 279 279 280 281 282 283 283 285 287 289 289 289 289 290 291 291 290 288 287 286 285 283 281 279 278 278 278 278 278 278 277 276 276 274 274 273 273 273 273 274 275 276 278 279 281 283 265 241 234 231 229 229 230 234 239 239 240 241 238 236 238 242 246 249 250 251 252 255 256 255 256 258 259 260 260 260 259
274 274 275 275 276 277 277 278 278 278 279 279 280 281 283 284 286 287 287 287 288 289 290 290 290 289 288 288 286 284 281 279 278 277 277 277 277 277 277 276 275 274 273 273 272 272 272 273 274 274 276 276 277 278 257 236 232 230 229 230 229 231 236 236 237 237 235 235 238 243 249 250 248 248 248 250 252 251 252 254 255 257 258 258 258
273 273 274 275 275 276 277 277 278 279 279 279 280 281 283 284 285 286 286 287 287 288 288 289 288 288 288 288 286 284 282 280 278 277 276 276 276 276 275 275 274 274 273 272 272 272 271 271 272 272 273 273 273 273 252 233 232 232 230 231 231 231 233 234 234 236 236 238 241 244 248 249 248 248 248 249 251 252 253 255 256 257 258 258 257
272 273 274 275 276 276 277 278 279 279 280 280 281 282 283 284 285 285 285 286 286 286 287 287 287 287 287 286 285 284 282 280 278 277 276 275 275 275 274 274 273 272 272 271 271 271 270 270 270 270 271 269 269 270 251 232 231 234 232 232 232 232 233 233 234 236 238 238 237 237 239 244 249 251 251 252 253 254 255 256 256 256 257 258 258
273 274 275 276 276 277 278 278 279 280 280 281 282 282 283 283 283 283 284 284 285 285 285 286 286 286 286 286 285 284 282 280 278 278 277 276 275 274 273 273 272 271 271 270 270 270 269 268 268 267 268 267 265 266 253 233 229 233 234 233 233 232 233 234 233 235 236 235 235 235 237 243 248 251 252 252 252 252 253 253 254 256 256 256 257
273 275 276 277 278 279 280 280 280 280 281 281 282 282 282 282 282 282 283 283 284 285 285 285 285 286 286 286 285 284 282 280 278 278 277 276 275 274 273 272 271 270 270 269 268 268 267 266 266 265 265 264 261 261 255 238 229 231 233 233 234 233 233 234 234 234 235 235 236 239 242 245 248 249 249 250 250 251 253 256 259 261 259 257 255
275 277 278 280 281 281 282 282 282 282 282 282 282 282 282 282 283 283 283 283 283 284 285 285 285 285 285 285 284 283 281 279 278 277 276 276 276 275 273 271 270 269 268 268 267 266 265 264 264 263 261 261 258 257 255 243 232 230 232 233 234 234 234 234 234 235 238 239 240 242 244 246 249 249 248 250 251 253 256 259 261 261 259 258 258
278 280 281 282 283 284 284 284 284 283 283 283 283 282 282 283 283 282 282 283 283 283 284 285 285 285 285 284 284 282 281 279 278 276 276 275 275 274 274 272 270 268 267 266 265 264 264 262 262 261 259 258 257 253 252 247 236 231 232 233 233 233 234 233 232 234 237 240 241 242 244 246 248 248 248 250 252 255 257 260 260 257 255 257 258
281 282 283 284 285 286 286 286 285 284 283 283 283 283 282 282 282 282 282 282 283 283 284 284 285 285 285 285 283 282 281 279 278 276 275 275 274 273 273 272 271 269 267 265 264 263 262 260 259 259 257 256 255 251 249 247 240 234 232 233 233 232 232 232 231 231 235 238 240 241 242 244 246 248 250 251 252 254 256 257 257 255 254 255 257
282 283 284 285 286 287 286 285 284 283 283 283 282 282 282 282 283 283 283 284 284 284 284 285 285 285 285 284 284 282 281 279 278 276 275 274 273 272 271 270 270 269 268 266 263 261 260 259 257 256 255 254 252 249 247 247 242 236 233 233 233 232 232 232 231 232 234 236 238 240 240 241 244 248 251 254 254 255 256 257 257 256 255 256 257
282 283 285 285 286 286 284 283 282 282 282 282 282 282 283 284 284 285 285 286 286 286 286 286 286 285 285 284 283 282 281 280 278 277 275 274 273 272 271 270 268 268 267 266 264 262 259 258 256 255 253 252 250 248 246 245 244 238 234 233 234 233 233 232 232 233 235 237 238 239 239 240 243 246 249 252 255 256 256 257 257 258 257 257 258
282 283 284 285 285 284 283 282 282 282 282 283 283 284 285 286 287 287 287 287 288 288 288 287 287 287 286 285 284 283 282 281 279 278 276 274 272 271 270 269 268 267 265 264 264 262 260 258 256 254 252 250 248 246 244 243 243 240 235 233 234 234 234 233 232 233 235 237 238 239 239 241 245 247 248 248 249 252 255 256 257 257 256 255 257
283 283 284 284 284 283 283 283 283 283 284 284 285 286 287 287 288 288 288 289 289 289 289 289 288 288 287 286 285 284 283 282 280 279 278 276 274 272 270 269 268 266 265 263 262 261 260 258 255 253 252 249 247 245 243 241 242 241 237 233 233 234 235 235 234 233 233 234 236 238 239 242 245 248 248 246 244 245 248 250 251 251 250 252 256
283 283 284 285 284 284 284 284 284 285 285 286 287 288 288 289 289 289 289 289 289 289 289 289 288 288 287 286 286 285 283 282 281 280 279 277 276 274 272 270 268 267 265 264 262 260 259 258 255 253 251 249 247 244 242 240 240 240 239 235 233 233 234 235 235 234 233 233 234 236 237 238 241 244 245 245 243 242 243 245 247 249 250 253 257
283 283 284 285 285 284 284 284 285 286 287 288 288 289 290 290 290 290 290 290 290 290 290 289 289 288 288 287 286 285 285 284 283 281 280 278 277 275 274 272 270 268 266 264 262 260 258 256 255 253 250 248 246 244 241 239 238 238 238 236 233 232 233 234 235 234 234 233 234 234 235 236 237 239 241 244 245 245 245 246 248 250 251 252 255
283 283 284 284 283 284 284 285 286 288 289 290 290 291 291 291 291 291 291 291 291 291 290 290 289 289 289 288 287 287 286 285 284 282 281 280 278 276 275 273 271 269 267 265 263 261 258 255 253 252 250 248 246 244 241 239 237 237 237 236 234 232 232 233 234 234 234 234 234 235 236 236 237 238 239 242 245 245 245 246 248 250 252 253 254
281 282 282 283 284 285 287 288 289 290 291 291 292 292 292 292 292 292 292 291 291 291 291 291 291 291 290 290 289 289 288 286 285 284 282 281 279 277 275 274 272 270 268 266 264 261 259 256 253 251 249 247 245 243 241 239 237 236 235 235 234 233 232 232 232 233 233 234 235 236 237 237 237 236 238 241 243 242 242 243 245 248 253 256 256
281 283 285 286 288 289 290 290 291 291 291 291 291 291 291 291 292 292 292 293 293 293 293 293 293 293 293 292 291 291 290 289 287 286 284 282 280 278 276 275 273 271 269 266 264 262 260 257 254 250 248 246 244 242 241 239 237 235 234 234 234 233 232 232 232 233 233 234 235 236 237 237 236 235 235 237 239 240 241 243 245 246 249 254 257
285 287 288 289 289 290 290 290 290 290 291 291 291 291 292 292 293 293 294 294 295 295 295 295 295 295 294 294 293 293 292 290 289 288 286 284 282 280 278 276 274 272 270 267 265 262 260 257 255 251 248 245 243 241 240 238 237 235 233 233 233 233 232 232 232 233 233 234 235 236 236 235 235 235 235 236 237 239 240 242 245 247 249 252 255
288 288 288 289 289 289 289 290 290 290 290 291 291 292 293 294 294 295 296 296 297 297 297 297 297 297 296 296 295 294 294 292 291 289 288 286 284 282 280 278 275 273 272 269 266 263 260 257 255 252 248 245 242 240 239 237 236 235 232 231 232 233 233 232 232 232 233 234 234 235 235 235 235 236 236 236 238 239 240 242 244 247 250 253 255
287 287 288 288 288 289 289 290 290 291 291 292 293 294 295 296 296 297 298 298 299 299 299 299 299 298 298 298 298 297 296 295 293 292 290 288 286 284 282 280 278 275 273 270 267 264 261 258 254 252 249 245 242 239 238 236 235 234 232 230 230 232 233 232 232 231 232 233 233 234 234 235 235 236 237 237 238 240 241 243 245 247 250 253 255
286 286 287 288 289 289 290 290 291 292 293 294 295 296 297 297 298 299 299 300 300 300 300 300 300 300 300 300 300 299 298 297 296 294 292 290 288 286 284 283 281 278 276 272 268 264 261 258 255 251 249 246 242 239 237 235 234 233 232 230 229 230 232 233 232 231 231 231 232 233 234 235 236 237 237 238 239 240 241 242 244 246 248 250 252
286 287 288 289 290 290 291 292 293 294 295 296 297 298 298 299 300 301 301 301 302 302 302 302 302 302 302 301 301 301 300 299 298 297 295 292 290 288 286 285 283 281 278 275 270 265 261 258 255 251 248 245 242 239 236 234 233 232 231 230 229 228 229 231 232 232 231 231 231 232 233 234 235 235 236 237 238 239 241 242 243 244 246 248 250
287 288 289 290 291 292 293 294 295 296 297 298 299 299 300 301 301 302 302 303 303 303 303 303 303 304 304 304 304 303 302 301 301 299 297 295 293 290 288 286 284 282 280 277 273 267 262 258 255 251 248 245 242 239 236 233 232 231 230 229 228 228 228 229 231 231 231 231 231 231 232 233 234 234 235 236 237 239 240 241 242 243 244 246 248
289 290 291 292 293 293 294 295 296 297 298 299 300 301 301 302 302 303 303 303 304 304 304 304 305 305 306 306 306 306 305 305 304 303 302 300 298 296 293 290 285 282 279 278 275 270 264 259 255 251 248 246 242 239 236 233 231 230 229 228 227 227 227 227 228 230 231 231 231 231 231 232 233 234 234 235 236 238 239 240 241 242 243 245 247
291 292 293 294 294 295 296 297 298 299 299 300 301 301 302 302 303 303 303 304 305 306 305 305 306 306 307 308 309 310 310 309 308 307 305 302 300 298 296 294 290 285 280 277 275 272 266 261 257 252 248 246 243 239 236 233 231 229 228 227 226 227 227 226 227 228 230 231 231 231 231 231 232 233 233 234 235 236 237 239 240 241 243 244 246
292 293 294 294 295 296 297 298 298 299 300 300 301 302 302 302 303 303 305 306 306 307 307 308 308 309 310 311 312 311 311 311 310 308 306 304 301 298 296 294 292 288 283 278 275 272 267 263 258 253 248 245 243 240 236 234 231 229 228 227 226 226 226 226 226 227 228 230 231 231 231 231 232 232 233 234 235 236 237 238 239 241 242 244 246
292 293 294 294 295 296 297 298 299 299 300 301 301 301 302 302 304 305 306 307 307 308 310 311 312 313 314 314 315 314 315 315 315 314 312 310 307 304 301 298 295 291 286 281 276 272 268 263 259 254 248 244 242 240 236 234 231 229 227 226 225 225 225 226 226 226 227 228 230 231 231 231 231 232 232 233 234 235 236 238 239 240 241 242 244
293 293 294 295 295 296 297 298 298 299 299 300 300 301 302 303 304 305 306 308 310 312 314 315 315 316 317 319 320 321 321 322 322 320 318 315 312 309 306 303 300 296 291 284 278 273 269 265 260 255 249 244 241 240 237 234 231 230 228 226 225 225 225 225 225 226 226 227 228 230 231 231 231 231 232 233 234 235 236 238 239 240 242 243 244
293 294 294 294 295 296 296 297 298 298 298 299 300 302 303 304 305 307 309 311 314 316 318 319 320 321 322 324 326 326 326 326 326 324 321 319 316 314 311 308 305 300 295 289 281 275 271 266 261 256 250 244 241 240 237 234 232 230 229 227 226 225 225 225 225 225 225 226 227 229 230 231 232 232 232 232 233 234 235 237 238 240 241 243 244
293 293 293 294 294 295 296 296 297 297 298 300 301 303 304 306 308 311 313 315 318 320 322 324 325 326 327 328 328 328 328 328 328 327 325 322 320 318 316 313 310 306 301 294 286 279 273 268 263 257 252 246 241 239 238 235 233 231 229 228 226 225 225 225 225 225 225 225 226 227 229 230 231 232 233 233 233 234 234 235 236 238 239 241 243
292 292 292 293 294 294 295 295 296 297 299 301 303 305 307 310 312 314 316 319 322 324 327 328 329 329 329 329 329 329 329 330 331 331 329 326 324 322 319 316 313 310 306 300 292 283 276 271 265 258 253 247 242 239 238 236 234 232 230 229 228 226 225 225 225 225 226 226 225 226 228 229 231 232 233 233 234 235 235 236 236 237 238 240 241
290 290 291 292 292 293 293 295 297 299 300 302 305 308 310 313 316 318 321 323 325 328 329 330 330 330 329 329 330 331 332 333 334 334 332 329 326 324 322 319 316 313 310 305 298 289 280 274 268 261 254 249 244 241 238 237 234 232 231 230 229 228 226 226 225 225 226 226 226 226 227 229 230 231 233 233 234 235 236 237 238 238 239 240 241
288 289 289 290 290 292 293 295 297 299 302 304 307 310 313 316 320 323 325 326 328 329 330 330 330 331 331 331 332 334 335 335 335 335 334 332 329 327 325 324 321 318 314 310 304 296 286 277 271 264 257 251 246 243 240 238 236 234 232 231 230 229 228 227 226 226 226 227 227 227 227 228 229 231 233 234 234 235 236 237 238 239 240 241 242
286 286 287 289 291 293 295 296 298 301 304 307 310 313 316 320 324 326 327 328 329 330 330 331 332 332 333 334 335 336 336 336 336 336 337 336 334 331 329 327 326 323 319 315 309 302 293 283 275 267 260 254 249 245 242 240 238 235 234 232 231 231 230 229 228 227 227 227 227 228 228 228 229 231 233 234 235 235 236 237 238 239 240 241 242
284 285 287 289 292 294 296 298 300 303 307 309 311 315 319 323 326 328 328 329 329 330 331 332 333 333 335 336 337 337 338 338 338 338 339 338 337 335 332 330 329 327 324 319 314 308 300 290 280 272 265 258 252 247 244 242 240 237 235 234 233 232 231 231 230 229 228 228 228 228 229 229 229 230 232 233 235 237 237 237 238 239 241 242 242
284 286 288 290 293 295 297 299 302 305 308 310 313 317 321 324 327 328 329 329 330 331 332 333 333 335 337 338 338 338 339 339 339 339 339 339 338 337 336 334 332 330 328 324 319 313 305 297 287 277 269 262 257 251 247 244 242 240 238 236 235 234 233 232 232 231 230 230 229 229 229 230 230 231 232 233 234 236 238 239 239 240 241 242 243
284 286 289 291 294 295 297 300 303 306 308 311 315 319 322 325 327 329 329 329 330 331 333 334 335 337 338 339 339 339 339 340 340 340 340 340 340 339 339 338 335 333 331 328 324 318 311 303 294 284 275 267 261 256 251 247 244 243 241 238 237 235 234 234 233 233 233 232 231 231 231 231 232 232 233 233 234 235 237 239 240 241 242 243 244
284 287 289 291 293 295 298 301 304 307 310 314 318 321 323 325 327 329 329 329 330 331 333 335 337 338 339 339 340 340 340 340 341 341 340 341 342 341 340 340 340 337 335 332 329 323 316 308 300 291 282 272 265 259 255 251 247 245 243 241 239 238 237 236 235 235 235 235 234 233 233 232 233 233 234 234 235 236 237 238 240 241 242 243 244
284 286 289 290 292 295 299 303 305 307 311 315 319 322 324 325 326 328 329 330 330 332 334 336 338 339 339 340 341 341 340 340 341 342 342 342 343 342 341 342 342 342 339 335 331 328 322 315 306 297 288 280 271 264 258 254 251 248 245 243 242 240 239 238 237 237 236 236 236 236 235 235 234 235 235 236 236 237 237 238 239 241 242 243 244
285 286 288 289 292 296 299 302 304 307 311 315 319 322 323 324 325 327 328 329 331 332 335 337 338 339 340 340 341 341 341 340 341 343 344 343 343 343 343 343 343 343 341 338 334 330 326 321 314 304 295 287 279 271 264 258 254 251 248 246 244 243 241 240 239 238 238 238 238 237 237 237 237 237 237 237 237 238 239 239 240 241 242 243 244
284 286 287 289 292 296 298 301 303 307 311 315 318 322 323 323 324 326 328 329 331 333 335 337 338 340 340 340 341 341 342 341 342 343 344 343 343 344 345 344 343 343 342 341 338 335 331 326 321 314 304 294 286 279 271 264 258 254 251 249 247 245 243 242 242 241 240 239 239 239 239 239 239 239 239 239 239 239 240 240 241 242 242 243 244
284 286 287 290 292 295 298 300 303 307 311 315 318 321 322 323 324 325 327 329 331 333 334 336 338 339 340 340 340 341 342 342 342 343 344 344 344 344 345 345 344 343 342 342 341 339 336 332 328 322 315 305 295 286 279 272 266 260 255 252 250 248 246 245 244 243 242 242 241 241 241 241 240 241 241 241 241 241 242 242 242 243 243 244 245
285 286 288 291 293 295 298 300 303 307 311 315 317 319 320 322 323 324 326 328 330 332 333 335 336 338 339 340 341 341 342 343 342 342 344 345 345 345 344 344 344 343 342 341 341 340 340 339 335 330 324 317 307 296 287 280 273 267 262 257 253 251 249 247 246 245 244 244 243 243 243 243 243 242 242 242 242 243 243 243 244 244 245 246 246
286 288 290 292 294 296 298 300 303 307 310 313 315 317 319 321 322 324 326 327 329 330 332 333 335 338 339 340 341 342 343 343 342 342 344 345 345 345 344 344 343 343 343 342 340 340 341 342 340 337 332 326 318 309 298 288 281 274 269 264 259 255 252 250 249 248 247 246 245 245 245 245 245 245 244 244 244 244 244 245 245 246 246 247 248
287 288 290 292 295 296 298 301 303 307 309 312 314 317 318 320 321 323 325 327 328 329 330 332 334 337 339 341 341 342 343 343 343 343 343 344 345 344 344 343 343 342 341 341 341 341 341 341 342 341 338 333 327 320 311 301 291 282 276 271 266 262 257 254 251 250 249 248 248 247 246 246 246 247 247 247 246 246 246 246 247 247 247 248 248
287 288 291 293 294 296 298 301 304 307 310 313 315 317 318 319 320 322 324 326 327 328 330 332 334 336 338 340 341 342 342 343 342 342 342 342 343 343 343 343 342 341 340 340 340 341 342 342 341 340 339 337 333 328 321 313 304 295 286 278 273 268 264 260 256 254 251 250 249 249 248 248 248 248 248 248 248 248 249 249 249 249 249 249 250
289 290 291 293 294 295 298 301 305 308 311 313 315 316 317 318 320 322 324 325 327 328 329 331 333 335 337 339 340 341 342 342 342 341 340 340 341 342 342 342 342 341 340 339 340 341 341 342 341 340 339 337 335 332 327 321 314 307 298 290 282 276 271 267 263 259 256 254 252 250 250 249 249 249 249 249 249 250 250 250 250 251 251 251 252
Height
10622 10620 10619 10618 10618 10618 10617 10617 10615 10614 10613 10612 10611 10610 10608 10607 10605 10604 10604 10604 10603 10602 10600 10599 10597 10596 10595 10593 10592 10590 10589 10588 10587 10586 10586 10586 10586 10586 10586 10586 10586 10586 10586 10584 10585 10586 10585 10585 10585 10586 10586 10586 10585 10583 10582 10582 10583 10584 10587 10590 10592 10593 10596 10599 10601 10602 10605 10607 10608 10609 10610 10611 10612 10612 10613 10614 10615 10617 10617 10617 10620 10622 10622 10622 10624
10616 10615 10614 10612 10611 10611 10610 10610 10609 10608 10607 10605 10604 10602 10600 10599 10597 10596 10596 10595 10594 10593 10592 10591 10589 10588 10586 10585 10584 10582 10581 10579 10579 10578 10578 10577 10578 10578 10578 10578 10578 10578 10577 10577 10577 10577 10578 10578 10578 10579 10580 10579 10579 10577 10576 10576 10578 10579 10582 10585 10587 10588 10590 10593 10595 10596 10599 10601 10602 10604 10605 10606 10607 10607 10608 10609 10610 10612 10611 10612 10614 10616 10616 10618 10619
10611 10609 10608 10606 10604 10603 10603 10603 10603 10602 10601 10599 10597 10595 10593 10591 10590 10590 10589 10587 10586 10585 10583 10582 10581 10580 10578 10577 10576 10574 10573 10571 10570 10570 10569 10569 10569 10569 10570 10570 10570 10570 10569 10569 10569 10569 10570 10571 10571 10572 10573 10573 10572 10571 10570 10571 10573 10575 10577 10579 10581 10583 10584 10587 10589 10590 10593 10595 10597 10598 10599 10600 10602 10603 10604 10606 10607 10607 10606 10607 10609 10610 10611 10613 10614
10605 10603 10601 10599 10597 10596 10596 10596 10596 10596 10594 10592 10590 10588 10586 10585 10584 10583 10582 10580 10578 10577 10576 10575 10573 10572 10570 10569 10568 10566 10565 10564 10562 10562 10561 10561 10560 10560 10561 10562 10562 10562 10561 10561 10561 10562 10562 10563 10563 10564 10566 10566 10566 10565 10565 10565 10567 10570 10571 10573 10576 10578 10579 10581 10583 10584 10586 10588 10590 10592 10593 10595 10598 10600 10601 10602 10603 10602 10602 10602 10604 10605 10606 10607 10608
10597 10596 10594 10592 10591 10590 10590 10589 10588 10588 10587 10585 10584 10582 10580 10579 10578 10576 10575 10573 10571 10570 10569 10567 10566 10564 10563 10561 10560 10558 10556 10555 10554 10554 10553 10553 10552 10552 10552 10552 10553 10553 10553 10552 10553 10554 10554 10555 10556 10557 10559 10559 10559 10559 10559 10559 10561 10564 10565 10567 10570 10571 10573 10574 10575 10577 10579 10581 10583 10586 10587 10590 10593 10595 10596 10597 10598 10597 10597 10598 10599 10600 10601 10601 10602
10590 10588 10587 10586 10585 10584 10583 10581 10580 10579 10578 10577 10576 10575 10574 10572 10571 10569 10567 10566 10564 10563 10561 10559 10558 10556 10555 10553 10552 10550 10548 10547 10545 10545 10545 10545 10544 10544 10544 10544 10544 10544 10544 10544 10544 10546 10547 10547 10548 10549 10551 10552 10552 10552 10553 10554 10555 10557 10559 10561 10563 10564 10565 10567 10568 10570 10572 10575 10578 10581 10582 10583 10587 10590 10591 10592 10592 10591 10592 10593 10594 10596 10596 10595 10597
10582 10581 10580 10579 10578 10576 10575 10574 10572 10571 10570 10569 10569 10568 10567 10565 10563 10561 10559 10558 10556 10555 10553 10551 10550 10548 10547 10545 10544 10542 10541 10539 10537 10536 10536 10536 10536 10536 10536 10535 10535 10535 10535 10535 10536 10537 10539 10539 10540 10541 10543 10544 10545 10545 10546 10547 10549 10551 10552 10554 10555 10557 10558 10560 10562 10564 10566 10569 10572 10575 10576 10577 10580 10583 10585 10587 10587 10586 10587 10588 10589 10590 10590 10589 10591
10575 10574 10572 10571 10570 10568 10567 10566 10565 10563 10562 10561 10561 10560 10559 10557 10555 10553 10551 10549 10548 10546 10545 10543 10541 10540 10538 10537 10536 10534 10533 10531 10529 10527 10526 10527 10527 10527 10527 10527 10527 10526 10526 10526 10527 10528 10529 10531 10532 10533 10534 10536 10537 10538 10539 10540 10542 10543 10544 10546 10548 10549 10551 10553 10555 10558 10560 10563 10566 10568 10570 10572 10575 10577 10579 10581 10581 10581 10582 10583 10584 10585 10585 10585 10586
10568 10566 10565 10564 10562 10560 10559 10558 10557 10555 10554 10553 10552 10551 10550 10549 10547 10545 10543 10541 10539 10537 10535 10534 10533 10531 10530 10528 10527 10526 10524 10523 10521 10519 10517 10517 10517 10518 10519 10519 10518 10518 10517 10518 10518 10519 10520 10522 10524 10525 10526 10528 10529 10530 10531 10532 10534 10535 10536 10538 10541 10542 10544 10546 10549 10552 10554 10557 10559 10562 10565 10567 10568 10570 10572 10574 10575 10577 10578 10578 10579 10580 10580 10579 10581
10560 10559 10557 10556 10554 10553 10551 10550 10549 10547 10546 10545 10544 10543 10541 10540 10539 10537 10535 10533 10531 10528 10526 10525 10524 10522 10521 10520 10518 10517 10515 10514 10512 10511 10509 10508 10507 10507 10508 10509 10510 10509 10508 10508 10509 10510 10511 10512 10514 10516 10518 10519 10521 10522 10523 10524 10526 10528 10529 10531 10533 10535 10537 10540 10543 10546 10547 10550 10553 10556 10559 10560 10561 10563 10565 10566 10569 10572 10572 10572 10574 10574 10573 10573 10575
10553 10551 10549 10548 10546 10545 10543 10542 10540 10539 10538 10537 10536 10534 10533 10531 10530 10528 10526 10524 10522 10520 10518 10516 10514 10513 10512 10510 10509 10507 10506 10504 10503 10502 10501 10499 10498 10497 10497 10498 10499 10500 10500 10499 10499 10500 10501 10503 10505 10507 10509 10510 10512 10513 10514 10515 10517 10519 10521 10523 10525 10528 10530 10532 10536 10538 10540 10542 10545 10549 10552 10553 10554 10556 10558 10559 10563 10566 10566 10566 10567 10567 10567 10567 10569
10545 10543 10542 10540 10539 10537 10535 10534 10532 10531 10530 10528 10527 10526 10524 10523 10521 10519 10517 10516 10514 10512 10509 10507 10505 10503 10501 10500 10499 10497 10496 10495 10493 10492 10491 10490 10489 10488 10487 10486 10487 10488 10489 10490 10490 10490 10491 10493 10495 10497 10499 10501 10503 10504 10506 10507 10508 10511 10513 10515 10518 10520 10522 10525 10528 10531 10533 10535 10537 10541 10545 10546 10546 10548 10550 10552 10555 10557 10559 10560 10559 10559 10561 10562 10563
10537 10535 10534 10533 10531 10529 10528 10526 10524 10523 10522 10520 10519 10517 10516 10514 10512 10510 10508 10506 10505 10502 10500 10498 10495 10493 10491 10490 10489 10487 10485 10484 10483 10482 10481 10479 10478 10477 10477 10476 10476 10476 10477 10478 10479 10480 10480 10482 10484 10486 10488 10491 10493 10495 10496 10497 10499 10502 10505 10507 10510 10512 10515 10518 10521 10523 10525 10527 10530 10534 10537 10538 10540 10542 10542 10543 10546 10549 10553 10553 10552 10554 10556 10556 10557
10529 10528 10526 10524 10523 10522 10520 10519 10517 10515 10514 10512 10511 10509 10507 10505 10503 10501 10499 10497 10495 10493 10490 10488 10486 10484 10482 10480 10478 10476 10474 10472 10471 10470 10469 10468 10467 10466 10465 10465 10465 10465 10465 10466 10467 10469 10470 10471 10473 10475 10478 10480 10483 10485 10487 10488 10489 10492 10495 10498 10501 10504 10507 10510 10513 10515 10516 10519 10523 10527 10529 10531 10534 10535 10535 10537 10539 10542 10545 10546 10546 10548 10550 10550 10550
10522 10520 10518 10517 10516 10514 10513 10511 10510 10508 10506 10505 10503 10501 10499 10497 10494 10491 10489 10487 10485 10483 10480 10478 10475 10473 10471 10469 10467 10465 10463 10461 10459 10457 10456 10455 10455 10454 10453 10453 10452 10453 10453 10454 10455 10456 10458 10460 10461 10463 10466 10469 10472 10474 10477 10478 10480 10482 10485 10489 10492 10495 10498 10502 10504 10506 10508 10512 10516 10518 10521 10524 10527 10527 10529 10533 10534 10535 10538 10540 10541 10542 10544 10543 10542
10514 10513 10511 10510 10508 10507 10506 10504 10502 10501 10499 10497 10495 10493 10491 10488 10485 10482 10480 10478 10476 10473 10471 10468 10465 10462 10460 10457 10455 10453 10451 10449 10446 10444 10442 10441 10440 10440 10440 10440 10439 10439 10440 10441 10442 10443 10445 10447 10450 10451 10454 10457 10460 10463 10466 10468 10470 10472 10475 10478 10482 10486 10489 10492 10495 10498 10500 10504 10507 10510 10513 10516 10519 10520 10523 10526 10528 10529 10532 10534 10534 10534 10535 10536 10535
10507 10506 10505 10503 10501 10500 10498 10497 10495 10493 10491 10489 10487 10485 10482 10479 10476 10473 10471 10468 10466 10464 10461 10458 10455 10452 10449 10446 10443 10440 10438 10435 10433 10431 10429 10427 10425 10424 10424 10425 10425 10425 10426 10427 10429 10430 10432 10434 10436 10439 10441 10444 10448 10452 10455 10457 10459 10462 10464 10468 10472 10476 10479 10482 10486 10489 10492 10496 10499 10502 10505 10509 10511 10513 10515 10518 10520 10522 10525 10526 10525 10525 10527 10528 10529
10501 10499 10498 10496 10494 10493 10491 10489 10488 10486 10483 10481 10478 10476 10473 10470 10466 10464 10461 10459 10456 10453 10451 10448 10445 10441 10437 10434 10431 10428 10425 10421 10418 10416 10414 10412 10410 10408 10407 10408 10409 10409 10410 10411 10413 10416 10418 10420 10423 10425 10429 10432 10435 10439 10442 10445 10448 10451 10454 10457 10461 10465 10469 10472 10477 10481 10484 10488 10491 10493 10497 10501 10504 10506 10508 10510 10511 10515 10517 10517 10516 10518 10520 10522 10524
10494 10492 10490 10489 10487 10486 10484 10482 10480 10478 10475 10472 10469 10467 10464 10460 10457 10454 10451 10449 10446 10443 10440 10436 10433 10430 10426 10422 10418 10414 10411 10408 10404 10401 10399 10396 10394 10392 10391 10390 10391 10393 10394 10395 10397 10400 10403 10406 10409 10411 10415 10418 10422 10426 10430 10433 10436 10440 10443 10447 10450 10454 10457 10462 10467 10471 10475 10479 10482 10485 10488 10491 10495 10498 10500 10502 10504 10507 10508 10507 10508 10510 10511 10513 10516
10487 10485 10484 10482 10480 10478 10476 10474 10472 10469 10466 10463 10460 10457 10455 10451 10448 10445 10442 10439 10435 10432 10428 10424 10421 10417 10413 10409 10405 10400 10397 10393 10390 10386 10383 10381 10378 10376 10375 10374 10374 10375 10377 10378 10380 10383 10386 10390 10394 10397 10400 10404 10408 10412 10416 10420 10424 10428 10432 10436 10439 10442 10446 10452 10456 10460 10465 10469 10472 10475 10478 10481 10486 10490 10493 10494 10496 10497 10499 10500 10502 10503 10502 10503 10506
10480 10478 10476 10475 10473 10470 10468 10466 10463 10461 10458 10455 10451 10449 10446 10442 10439 10435 10432 10428 10424 10420 10416 10412 10408 10403 10399 10395 10392 10387 10383 10379 10375 10372 10368 10366 10363 10361 10360 10359 10358 10358 10360 10362 10363 10366 10369 10373 10377 10382 10386 10390 10394 10398 10402 10407 10411 10415 10420 10424 10427 10430 10435 10440 10445 10449 10455 10459 10462 10466 10469 10472 10476 10481 10484 10486 10486 10487 10490 10492 10493 10495 10496 10495 10496
10472 10470 10469 10467 10465 10462 10460 10458 10455 10452 10450 10446 10443 10440 10437 10434 10430 10426 10422 10417 10413 10409 10404 10400 10395 10391 10386 10382 10378 10375 10370 10366 10362 10359 10355 10351 10349 10346 10345 10345 10344 10342 10343 10345 10348 10350 10353 10356 10361 10365 10370 10375 10379 10383 10388 10393 10398 10403 10408 10412 10415 10419 10423 10428 10433 10438 10444 10448 10452 10456 10459 10463 10467 10470 10474 10476 10477 10478 10482 10484 10484 10486 10490 10489 10489
10465 10463 10461 10459 10457 10455 10452 10449 10447 10444 10441 10438 10434 10431 10428 10425 10420 10416 10412 10407 10403 10398 10393 10388 10384 10379 10375 10370 10366 10362 10358 10354 10351 10347 10343 10339 10336 10333 10332 10331 10330 10330 10329 10330 10333 10335 10337 10341 10344 10349 10354 10359 10364 10369 10374 10380 10385 10390 10396 10400 10404 10407 10412 10417 10422 10427 10432 10437 10441 10445 10449 10453 10457 10460 10463 10467 10468 10470 10473 10475 10476 10478 10481 10481 10481
10458 10456 10453 10451 10449 10447 10444 10441 10438 10435 10432 10429 10426 10422 10419 10415 10411 10406 10402 10397 10392 10387 10382 10378 10373 10369 10364 10360 10355 10351 10347 10343 10339 10335 10332 10328 10325 10322 10319 10318 10318 10318 10317 10318 10319 10321 10323 10326 10329 10333 10338 10344 10349 10354 10360 10365 10371 10377 10383 10388 10392 10396 10400 10405 10410 10416 10420 10425 10430 10434 10439 10443 10446 10450 10453 10456 10459 10461 10463 10466 10468 10471 10473 10472 10471
10451 10449 10446 10443 10441 10438 10435 10433 10430 10427 10424 10421 10417 10414 10410 10406 10401 10397 10392 10388 10383 10377 10373 10368 10364 10359 10355 10350 10346 10341 10337 10332 10328 10324 10321 10318 10314 10312 10309 10307 10306 10306 10306 10306 10306 10308 10309 10312 10316 10319 10323 10329 10334 10339 10345 10351 10357 10364 10370 10376 10380 10385 10389 10394 10399 10404 10409 10414 10418 10423 10428 10432 10436 10440 10443 10446 10449 10450 10453 10457 10460 10462 10464 10463 10461
10443 10441 10439 10436 10433 10431 10427 10424 10421 10419 10416 10412 10409 10405 10401 10397 10392 10387 10383 10379 10374 10368 10363 10359 10354 10350 10346 10342 10337 10332 10327 10323 10318 10314 10310 10307 10304 10302 10300 10297 10296 10295 10294 10294 10295 10296 10297 10300 10303 10306 10310 10314 10319 10325 10331 10337 10343 10350 10357 10363 10368 10373 10378 10383 10388 10393 10397 10402 10406 10411 10416 10421 10425 10429 10432 10435 10438 10440 10443 10447 10450 10452 10453 10453 10453
10435 10433 10431 10428 10426 10423 10419 10416 10413 10410 10407 10403 10399 10395 10391 10387 10383 10379 10374 10370 10366 10361 10356 10351 10346 10341 10337 10333 10329 10324 10319 10314 10309 10305 10301 10297 10294 10292 10290 10289 10287 10286 10284 10283 10284 10285 10286 10288 10291 10294 10297 10301 10306 10311 10317 10323 10329 10336 10343 10350 10356 10361 10366 10372 10377 10381 10385 10390 10395 10400 10405 10409 10413 10417 10421 10425 10428 10430 10433 10436 10439 10441 10443 10444 10444
10428 10425 10422 10420 10417 10414 10411 10408 10404 10402 10398 10394 10391 10387 10383 10379 10375 10371 10367 10363 10359 10354 10349 10344 10339 10334 10330 10325 10320 10315 10310 10306 10301 10297 10292 10288 10284 10281 10280 10279 10278 10277 10275 10273 10273 10275 10276 10277 10280 10283 10286 10289 10294 10299 10304 10310 10316 10323 10330 10337 10343 10349 10354 10360 10365 10370 10374 10378 10383 10389 10393 10397 10402 10407 10412 10415 10418 10421 10423 10425 10428 10430 10432 10433 10434
10420 10417 10414 10411 10408 10405 10402 10399 10396 10393 10390 10386 10382 10379 10375 10371 10368 10364 10360 10357 10352 10347 10342 10337 10332 10328 10324 10319 10314 10309 10304 10299 10295 10290 10286 10282 10278 10274 10271 10270 10269 10268 10267 10265 10264 10265 10267 10268 10270 10273 10276 10279 10283 10288 10292 10298 10304 10310 10317 10324 10330 10336 10342 10348 10354 10359 10363 10367 10372 10377 10382 10386 10392 10396 10400 10404 10407 10409 10412 10415 10417 10420 10421 10423 10424
10413 10410 10407 10403 10400 10397 10394 10391 10387 10384 10381 10378 10375 10371 10368 10365 10361 10357 10354 10350 10346 10341 10336 10330 10325 10321 10317 10314 10309 10304 10299 10294 10289 10285 10280 10275 10271 10268 10265 10263 10261 10259 10259 10257 10256 10256 10258 10259 10261 10264 10266 10269 10272 10277 10281 10286 10292 10298 10304 10311 10318 10324 10330 10336 10342 10348 10353 10357 10361 10366 10371 10376 10382 10386 10389 10392 10395 10398 10402 10404 10407 10409 10411 10413 10414
10405 10403 10400 10396 10392 10389 10386 10383 10380 10377 10373 10371 10368 10364 10361 10358 10355 10351 10348 10344 10340 10336 10331 10325 10319 10314 10310 10307 10302 10297 10292 10288 10283 10278 10273 10269 10265 10261 10258 10255 10254 10252 10251 10250 10249 10248 10249 10251 10252 10254 10257 10260 10262 10266 10271 10276 10281 10286 10292 10299 10306 10311 10317 10324 10330 10336 10342 10347 10351 10355 10359 10365 10370 10375 10378 10381 10385 10388 10391 10393 10396 10398 10401 10403 10405
10397 10395 10392 10388 10385 10382 10379 10376 10373 10370 10367 10364 10361 10358 10355 10352 10349 10345 10342 10339 10335 10330 10325 10320 10314 10309 10305 10301 10296 10290 10285 10281 10276 10271 10267 10263 10259 10255 10252 10249 10247 10245 10244 10243 10242 10241 10241 10243 10244 10246 10248 10251 10253 10257 10261 10266 10270 10275 10281 10287 10294 10299 10305 10312 10319 10325 10332 10337 10341 10345 10349 10353 10358 10363 10367 10370 10374 10377 10380 10383 10386 10388 10391 10393 10394
10388 10386 10383 10380 10377 10375 10372 10369 10367 10364 10361 10358 10356 10353 10350 10347 10343 10340 10336 10333 10329 10325 10320 10315 10309 10304 10299 10295 10291 10285 10280 10275 10271 10266 10261 10257 10253 10250 10246 10243 10240 10239 10238 10237 10236 10235 10234 10235 10237 10238 10240 10243 10245 10248 10252 10256 10260 10265 10270 10276 10283 10289 10295 10301 10307 10314 10320 10326 10331 10335 10339 10342 10346 10351 10355 10359 10363 10366 10369 10373 10376 10378 10380 10382 10384
10380 10377 10375 10372 10370 10367 10365 10363 10360 10358 10355 10353 10350 10347 10344 10340 10337 10333 10330 10327 10324 10320 10315 10309 10304 10299 10294 10289 10286 10281 10276 10271 10267 10261 10256 10252 10248 10245 10242 10238 10235 10233 10232 10231 10230 10229 10228 10228 10230 10231 10233 10236 10238 10241 10244 10248 10252 10256 10261 10266 10272 10278 10284 10290 10296 10302 10308 10314 10320 10324 10328 10332 10336 10339 10343 10347 10350 10353 10356 10360 10364 10367 10370 10372 10374
10372 10369 10367 10365 10363 10361 10359 10357 10355 10352 10350 10348 10345 10342 10338 10335 10331 10328 10324 10321 10318 10315 10310 10305 10300 10295 10290 10285 10281 10277 10272 10268 10263 10258 10252 10247 10243 10240 10237 10234 10231 10228 10227 10226 10225 10224 10222 10222 10223 10225 10226 10228 10231 10233 10236 10239 10243 10248 10252 10257 10262 10268 10274 10279 10284 10291 10297 10303 10309 10314 10318 10322 10325 10328 10331 10335 10339 10342 10345 10349 10353 10356 10359 10361 10363
10364 10362 10360 10359 10358 10356 10354 10352 10350 10347 10345 10342 10339 10337 10333 10330 10326 10323 10319 10316 10313 10309 10306 10302 10297 10292 10287 10282 10278 10273 10268 10263 10259 10255 10249 10244 10239 10236 10233 10230 10227 10224 10222 10221 10220 10219 10217 10217 10217 10219 10220 10222 10223 10226 10228 10231 10235 10239 10244 10248 10253 10258 10263 10268 10274 10280 10286 10293 10299 10304 10308 10312 10315 10317 10320 10323 10328 10332 10335 10338 10342 10345 10348 10350 10352
10358 10356 10355 10354 10353 10351 10349 10347 10345 10343 10340 10337 10334 10331 10329 10325 10322 10318 10314 10311 10308 10305 10302 10298 10294 10289 10284 10279 10274 10269 10264 10259 10255 10252 10247 10242 10237 10232 10229 10226 10223 10220 10218 10216 10215 10214 10213 10212 10212 10213 10214 10216 10217 10219 10221 10224 10228 10231 10235 10240 10243 10248 10253 10258 10264 10270 10276 10282 10288 10293 10298 10302 10305 10307 10309 10313 10318 10322 10325 10327 10330 10334 10337 10338 10339
10352 10350 10349 10349 10348 10346 10345 10343 10341 10338 10335 10332 10329 10327 10324 10321 10318 10314 10311 10307 10304 10301 10297 10293 10289 10285 10281 10275 10270 10265 10261 10256 10251 10248 10244 10239 10234 10229 10226 10223 10220 10217 10214 10212 10211 10209 10208 10208 10208 10208 10209 10210 10211 10213 10215 10218 10221 10224 10228 10232 10235 10239 10244 10249 10255 10260 10266 10272 10277 10282 10287 10291 10294 10297 10300 10303 10308 10312 10315 10317 10319 10322 10324 10326 10329
10347 10346 10345 10344 10343 10342 10340 10338 10335 10333 10331 10328 10325 10323 10319 10317 10314 10311 10308 10304 10301 10297 10293 10289 10285 10281 10277 10272 10267 10262 10258 10253 10248 10244 10240 10236 10232 10228 10223 10220 10217 10214 10211 10209 10207 10206 10204 10204 10203 10203 10204 10204 10206 10207 10209 10211 10214 10217 10220 10224 10228 10232 10236 10240 10245 10250 10256 10261 10266 10271 10275 10280 10284 10287 10292 10295 10298 10301 10304 10307 10310 10311 10313 10315 10318
10343 10342 10340 10339 10339 10337 10336 10333 10331 10329 10326 10324 10321 10319 10316 10313 10311 10308 10305 10301 10298 10294 10290 10286 10281 10277 10273 10269 10264 10259 10255 10251 10246 10242 10238 10234 10230 10226 10222 10218 10214 10211 10209 10206 10204 10202 10201 10200 10199 10199 10200 10200 10201 10202 10204 10206 10208 10211 10214 10217 10220 10224 10228 10232 10236 10241 10245 10250 10255 10260 10264 10269 10273 10277 10282 10286 10289 10291 10294 10297 10300 10302 10303 10304 10306
10339 10337 10336 10335 10334 10333 10331 10329 10327 10325 10322 10320 10317 10314 10312 10309 10307 10304 10301 10297 10294 10291 10287 10283 10278 10274 10269 10266 10262 10257 10253 10249 10244 10240 10236 10232 10228 10224 10220 10216 10212 10209 10207 10204 10202 10199 10198 10197 10196 10195 10195 10196 10196 10197 10198 10200 10202 10204 10207 10210 10213 10217 10221 10224 10228 10231 10235 10240 10245 10250 10255 10259 10263 10267 10271 10275 10279 10282 10284 10286 10288 10291 10293 10294 10295
10334 10333 10332 10331 10330 10328 10326 10325 10323 10321 10318 10316 10313 10310 10308 10305 10303 10301 10297 10294 10290 10287 10284 10280 10275 10271 10267 10263 10259 10254 10250 10246 10242 10238 10234 10230 10226 10222 10218 10214 10211 10207 10204 10202 10200 10197 10195 10194 10193 10192 10191 10192 10192 10192 10193 10195 10196 10198 10201 10204 10207 10210 10213 10216 10220 10223 10227 10231 10235 10240 10244 10248 10252 10256 10260 10264 10268 10271 10274 10276 10278 10280 10282 10284 10285
10331 10330 10329 10327 10326 10324 10322 10320 10319 10317 10315 10313 10310 10307 10304 10301 10299 10297 10294 10290 10287 10283 10280 10276 10272 10268 10263 10259 10256 10252 10247 10243 10240 10236 10232 10227 10224 10220 10216 10213 10209 10206 10202 10200 10197 10195 10193 10191 10190 10189 10188 10188 10188 10188 10189 10190 10191 10193 10195 10197 10200 10203 10206 10209 10212 10215 10218 10222 10225 10229 10233 10237 10241 10245 10249 10252 10256 10260 10263 10266 10268 10270 10272 10273 10275
10327 10326 10325 10323 10322 10320 10319 10317 10315 10313 10312 10310 10307 10305 10302 10299 10296 10293 10290 10287 10283 10280 10276 10272 10269 10264 10260 10256 10253 10249 10245 10240 10237 10234 10230 10226 10222 10219 10215 10211 10208 10205 10201 10198 10195 10193 10191 10189 10188 10186 10185 10184 10184 10184 10185 10185 10186 10187 10189 10191 10193 10196 10198 10201 10204 10206 10209 10213 10216 10219 10222 10226 10229 10233 10237 10241 10244 10248 10251 10254 10257 10260 10262 10263 10265
10322 10322 10321 10319 10318 10317 10315 10314 10312 10310 10308 10306 10304 10302 10300 10296 10293 10290 10287 10283 10280 10276 10272 10269 10265 10261 10258 10253 10250 10246 10242 10238 10234 10231 10228 10224 10220 10217 10214 10210 10207 10204 10200 10197 10194 10191 10189 10187 10185 10184 10182 10181 10181 10180 10180 10181 10182 10182 10183 10185 10187 10189 10191 10193 10195 10198 10201 10204 10206 10209 10212 10215 10218 10222 10225 10229 10232 10236 10239 10242 10245 10247 10249 10252 10253
10318 10318 10317 10316 10314 10313 10312 10310 10308 10307 10305 10303 10301 10299 10297 10294 10291 10287 10284 10280 10277 10273 10269 10266 10262 10259 10255 10251 10247 10243 10239 10235 10231 10228 10226 10222 10218 10215 10212 10209 10206 10202 10199 10196 10193 10190 10187 10185 10183 10181 10180 10179 10178 10177 10177 10177 10177 10178 10178 10179 10181 10182 10184 10186 10188 10190 10192 10195 10197 10200 10202 10205 10208 10211 10214 10217 10220 10224 10226 10229 10232 10234 10237 10239 10241
10314 10313 10313 10312 10311 10309 10308 10307 10305 10303 10301 10300 10298 10296 10295 10292 10289 10285 10282 10278 10274 10270 10267 10263 10260 10257 10253 10249 10244 10241 10237 10233 10229 10225 10222 10219 10216 10212 10209 10207 10204 10201 10198 10195 10192 10189 10186 10183 10181 10179 10177 10176 10175 10174 10173 10173 10173 10173 10173 10174 10175 10176 10177 10179 10180 10182 10184 10186 10189 10191 10193 10195 10198 10200 10203 10205 10208 10211 10214 10216 10219 10221 10223 10226 10228
10311 10310 10309 10308 10307 10306 10304 10303 10302 10300 10298 10297 10295 10293 10291 10290 10287 10284 10280 10276 10272 10268 10264 10261 10258 10254 10250 10246 10242 10237 10234 10230 10226 10222 10219 10216 10213 10210 10207 10204 10201 10199 10197 10194 10190 10187 10184 10181 10179 10177 10175 10173 10172 10171 10170 10169 10169 10169 10169 10169 10170 10170 10171 10172 10173 10175 10176 10178 10180 10182 10184 10185 10187 10190 10192 10195 10197 10199 10201 10203 10206 10208 10210 10213 10215
10307 10306 10305 10304 10303 10302 10301 10299 10298 10296 10295 10293 10291 10289 10287 10286 10284 10281 10278 10275 10271 10267 10262 10258 10255 10251 10247 10243 10239 10235 10231 10227 10223 10219 10216 10213 10211 10208 10205 10202 10199 10196 10194 10192 10189 10186 10183 10180 10177 10175 10173 10171 10169 10168 10167 10166 10165 10165 10164 10164 10164 10165 10165 10166 10167 10168 10169 10170 10172 10174 10175 10176 10178 10179 10182 10184 10186 10188 10189 10191 10194 10196 10197 10200 10202
10304 10303 10302 10301 10299 10298 10297 10295 10294 10292 10290 10289 10287 10285 10283 10281 10279 10277 10275 10272 10269 10265 10260 10256 10252 10248 10244 10240 10236 10232 10228 10225 10221 10217 10214 10211 10208 10206 10203 10200 10197 10194 10191 10189 10187 10184 10181 10178 10176 10173 10171 10169 10167 10166 10164 10163 10161 10161 10160 10160 10160 10160 10160 10160 10161 10161 10162 10163 10164 10165 10166 10167 10168 10170 10171 10173 10175 10176 10178 10180 10182 10184 10185 10187 10188
10300 10299 10298 10297 10296 10295 10293 10292 10290 10288 10286 10284 10283 10281 10279 10277 10275 10272 10270 10268 10265 10262 10258 10254 10249 10245 10241 10237 10233 10229 10225 10221 10218 10215 10212 10208 10206 10203 10200 10198 10195 10192 10189 10186 10183 10181 10179 10177 10174 10172 10169 10167 10165 10163 10162 10160 10158 10157 10156 10155 10155 10155 10155 10155 10155 10155 10155 10156 10156 10157 10158 10159 10159 10160 10162 10163 10164 10166 10167 10168 10170 10172 10173 10174 10175